Content
SEND FEEDBACK

Daily
Averages
Monthly
Summary
Philippines

OLONGAPO, PHILIPPINES


Home > Asia > Philippines
Elevation: 55 feet     Latitude: 14 48N     Longitude: 120 16E

WEATHER
 
SELECT A DAY
Number of Records: 135,190;   Date Range: 7/31/96 - 9/18/14
 
SHARE

PRINT THIS DATA

[ ← Previous Day ]
WEATHER ALMANAC - JULY 8, 2013
[ Next Day → ]
[ °C ]   °F
We're sorry. There is no daily almanac available for Olongapo, Philippines on July 8, 2013.
WEATHER BY HOUR - JULY 8, 2013
[ °C ]   °F
Local TimeTemperatureDewpointHumidityBarometerVisibilityWind DirectionWind SpeedGust SpeedPrecipitationEventsConditions
2:00 AM80.6 °F73.4 °F79 %29.83 in6.2 miEast (80°)6.9 mphPartly Cloudy
5:00 AM78.0 °F72.0 °F78 %29.84 in9.0 miENE (60°)4.5 mphHaze
5:00 AM78.8 °F73.4 °F83 %29.83 in6.2 miVariable3.5 mphMostly Cloudy
6:00 AM77.0 °F71.6 °F83 %29.86 in6.2 miVariable3.5 mphMostly Cloudy
7:00 AM82.4 °F71.6 °F70 %29.86 in6.2 miENE (60°)5.8 mphMostly Cloudy
8:00 AM84.2 °F73.4 °F70 %29.86 in6.2 miENE (70°)10.4 mphScattered Clouds
8:00 AM84.0 °F76.0 °F70 %29.88 in11.0 miENE (70°)8.9 mphHaze
9:00 AM86.0 °F73.4 °F66 %29.89 in6.2 miENE (70°)10.4 mphScattered Clouds
10:00 AM86.0 °F73.4 °F66 %29.86 in6.2 miENE (70°)10.4 mphScattered Clouds
11:00 AM92.0 °F74.0 °F48 %29.85 in12.0 miENE (70°)11.2 mphHaze
11:00 AM91.4 °F75.2 °F59 %29.83 in6.2 miENE (70°)11.5 mphScattered Clouds
12:00 PM95.0 °F75.2 °F53 %29.83 in6.2 miENE (60°)11.5 mphPartly Cloudy
1:00 PM95.0 °F75.2 °F53 %29.80 in6.2 miEast (80°)11.5 mphScattered Clouds
2:00 PM95.0 °F73.0 °F40 %29.78 in12.0 miENE (70°)8.9 mphHaze
2:00 PM95.0 °F73.4 °F49 %29.77 in6.2 miENE (70°)9.2 mphScattered Clouds
3:00 PM96.8 °F75.2 °F50 %29.74 in6.2 miEast (80°)6.9 mphScattered Clouds
5:00 PM92.0 °F76.0 °F52 %29.75 in12.0 miSW (230°)6.7 mphHaze
6:00 PM89.6 °F77.0 °F66 %29.77 in6.2 miNorth (350°)9.2 mphPartly Cloudy
7:00 PM80.6 °F75.2 °F84 %29.80 in3.7 miESE (120°)13.8 mphRain-ThunderstormRain Showers
8:00 PM80.0 °F76.0 °F84 %29.84 in6.0 miENE (70°)6.7 mphRainLight Rain Showers
8:00 PM78.8 °F75.2 °F89 %29.83 in6.2 miENE (70°)6.9 mphRain-ThunderstormRain Showers
9:00 PM78.8 °F75.2 °F89 %29.86 in6.2 miVariable1.2 mphMostly Cloudy
10:00 PM78.8 °F75.2 °F89 %29.89 in6.2 miEast (80°)4.6 mphMostly Cloudy
11:00 PM78.0 °F74.0 °F86 %29.85 in9.0 miENE (70°)4.5 mphThunderstormLight Thunderstorm
Hourly data recorded from RPLB, located miles away from Olongapo, Philippines







STORIES FROM OUR PARTNERS